Flag for India Weather past 2 weeks in Sivaganga, Tamil Nadu, India

Now
100 °F

Passing clouds.


Feels Like: 110 °F
Forecast: 80 / 98 °F
Wind: 5 mph from West

Location: Tiruchchirapalli

Current Time: Aug 31, 2015 at 3:15:46 PM

Latest Report: Aug 31, 2015 at 2:40 PM


Visibility: 5 mi

Pressure: 29.74 "Hg

Humidity: 40%

Dew point: 72 °F

Location of SivagangaLocation

Historic Weather in Sivaganga — Graph

°F

Sivaganga temperature yesterday

Maximum temperature yesterday: 102 °F (at 3:40 PM)
Minimum temperature yesterday: 81 °F (at 4:40 AM)
Average temperature yesterday: 90 °F

Past Weeks' High & Low Weather Summary

 TemperatureHumidityPressure
High102 °F (Aug 30, 3:40 PM)94% (Aug 16, 8:40 PM)29.89 "Hg (Aug 16, 8:40 PM)
Low75 °F (Aug 16, 11:40 PM)33% (Aug 28, 2:40 PM)29.62 "Hg (Aug 27, 4:10 PM)
Average87 °F64%29.76 "Hg
* Reported Aug 16 1:40 PM — Aug 31 2:10 PM, Sivaganga, Weather by CustomWeather, © 2015

Note: Actual official high and low records may vary slightly from our data, if they occured in-between our weather recording intervals... More about our weather records

Advertising

Sivaganga weather history for previous 24 hours

 ConditionsComfort  
Time TempWeatherWind HumidityBarometerVisibility
2:10 PM
Mon, Aug 31
99 °FPassing clouds.3 mph42%29.74 "Hg5 mi
1:40 PM99 °FPassing clouds.8 mph42%29.77 "Hg4 mi
1:10 PM99 °FPassing clouds.7 mph37%29.77 "Hg4 mi
12:40 PM97 °FPassing clouds.10 mph42%29.77 "Hg4 mi
12:10 PM97 °FPassing clouds.9 mph42%29.80 "Hg4 mi
11:40 AM95 °FPassing clouds.12 mph44%29.80 "Hg4 mi
11:10 AM93 °FPassing clouds.9 mph47%29.80 "Hg4 mi
10:40 AM91 °FPassing clouds.13 mph49%29.83 "Hg4 mi
10:10 AM91 °FPassing clouds.12 mph52%29.83 "Hg4 mi
9:40 AM90 °FPassing clouds.10 mph55%29.83 "Hg4 mi
9:10 AM88 °FPassing clouds.13 mph59%29.83 "Hg4 mi
8:40 AM86 °FPassing clouds.14 mph62%29.83 "Hg4 mi
8:10 AM84 °FHaze.13 mph66%29.80 "Hg3 mi
7:40 AM82 °FHaze.10 mph70%29.80 "Hg3 mi
6:40 AM81 °FPassing clouds.9 mph74%29.77 "Hg4 mi
5:40 AM81 °FPassing clouds.10 mph70%29.77 "Hg4 mi
5:10 AM81 °FPassing clouds.9 mph66%29.77 "Hg4 mi
4:40 AM82 °FPassing clouds.10 mph62%29.74 "Hg4 mi
4:10 AM82 °FPassing clouds.10 mph62%29.74 "Hg4 mi
3:40 AM82 °FPassing clouds.9 mph62%29.77 "Hg4 mi
3:10 AM82 °FPassing clouds.9 mph62%29.77 "Hg4 mi
2:40 AM82 °FPassing clouds.9 mph62%29.77 "Hg4 mi
2:10 AM82 °FPassing clouds.7 mph66%29.77 "Hg4 mi
1:40 AM82 °FPassing clouds.7 mph66%29.77 "Hg4 mi
1:10 AM84 °FPassing clouds.9 mph62%29.77 "Hg4 mi
12:40 AM84 °FPassing clouds.9 mph62%29.77 "Hg4 mi
12:10 AM84 °FPassing clouds.3 mph66%29.80 "Hg4 mi
11:40 PM
Sun, Aug 30
84 °FPassing clouds.3 mph66%29.80 "Hg4 mi
11:10 PM84 °FPassing clouds.3 mph66%29.80 "Hg4 mi
10:40 PM86 °FPassing clouds.3 mph62%29.80 "Hg4 mi
10:10 PM86 °FPassing clouds.5 mph62%29.80 "Hg4 mi
9:40 PM86 °FPassing clouds.7 mph62%29.77 "Hg4 mi
9:10 PM88 °FPassing clouds.8 mph62%29.77 "Hg4 mi
8:40 PM88 °FPassing clouds.8 mph62%29.77 "Hg4 mi
8:10 PM90 °FPassing clouds.10 mph55%29.74 "Hg4 mi
7:40 PM91 °FPassing clouds.10 mph49%29.74 "Hg4 mi
7:10 PM91 °FPassing clouds.12 mph49%29.71 "Hg4 mi
6:40 PM93 °FScattered clouds.10 mph47%29.68 "Hg4 mi
6:10 PM95 °FScattered clouds.9 mph41%29.68 "Hg4 mi
5:40 PM99 °FScattered clouds.9 mph35%29.65 "Hg4 mi
5:10 PM99 °FScattered clouds.9 mph35%29.65 "Hg5 mi
4:40 PM100 °FScattered clouds.9 mph35%29.65 "HgN/A
4:10 PM102 °FScattered clouds.9 mph33%29.65 "HgN/A
3:40 PM102 °FScattered clouds.9 mph33%29.65 "HgN/A
3:10 PM100 °FScattered clouds.6 mph37%29.68 "HgN/A
Weather by CustomWeather, © 2015

See weather overviewHow to use our weather pages